Location: Arbon
(43.0005°N, 0.7472°E)
Time: 05:01:17
(UTC+00:00)

Vanguard 2 Rocket - Pass Details

Date: 27 June 2021
Orbit: 554 x 3325 km, 32.9° (Epoch: 26 July)

Event Time Altitude Azimuth Distance (km) Brightness Sun altitude
Rises 20:38:03 0° 270° (W) 7,247 12.3 -9.0°
Reaches altitude 10° 20:43:02 10° 267° (W) 6,283 11.8 -9.7°
Maximum altitude 21:02:11 54° 198° (SSW) 3,361 9.5 -12.1°
Enters shadow 21:14:37 15° 129° (SE) 4,396 9.7 -13.5°
